Time,TemperatureF,DewpointF,PressureIn,WindDirection,WindDirectionDegrees,WindSpeedMPH,WindSpeedGustMPH,Humidity,HourlyPrecipIn,Conditions,Clouds,dailyrainin,SoftwareType,DateUTC
2013-06-18 00:00:00,82.9,73.4,29.52,SSE,157,0.0,0.0,73,0.00,,,0.00,WUHU21623XXSP,2013-06-18 04:00:00,
2013-06-18 00:05:00,82.9,73.4,29.52,SSE,157,0.0,0.0,73,0.00,,,0.00,WUHU21623XXSP,2013-06-18 04:05:00,
2013-06-18 00:10:00,82.8,73.2,29.52,SSE,157,0.0,0.0,73,0.00,,,0.00,WUHU21623XXSP,2013-06-18 04:10:00,
2013-06-18 00:15:00,82.8,73.2,29.51,SSE,157,0.0,0.0,73,0.00,,,0.00,WUHU21623XXSP,2013-06-18 04:15:00,
2013-06-18 00:20:00,82.8,73.2,29.51,SSE,157,0.0,0.0,73,0.00,,,0.00,WUHU21623XXSP,2013-06-18 04:20:00,
2013-06-18 00:25:00,82.6,73.0,29.51,SSE,157,0.0,0.0,73,0.00,,,0.00,WUHU21623XXSP,2013-06-18 04:25:00,
2013-06-18 00:30:00,82.6,73.0,29.50,SSE,157,0.0,0.0,73,0.00,,,0.00,WUHU21623XXSP,2013-06-18 04:30:00,
2013-06-18 00:35:00,82.6,73.0,29.50,SSE,157,0.0,0.0,73,0.00,,,0.00,WUHU21623XXSP,2013-06-18 04:35:00,
2013-06-18 00:40:00,82.6,73.0,29.50,South,180,0.0,0.0,73,0.00,,,0.00,WUHU21623XXSP,2013-06-18 04:40:00,
2013-06-18 00:45:00,82.6,73.0,29.50,South,180,0.0,0.0,73,0.00,,,0.00,WUHU21623XXSP,2013-06-18 04:45:00,
2013-06-18 00:50:00,82.6,73.4,29.50,South,180,0.0,0.0,74,0.00,,,0.00,WUHU21623XXSP,2013-06-18 04:50:00,
2013-06-18 00:55:00,82.4,73.3,29.50,South,180,0.0,0.0,74,0.00,,,0.00,WUHU21623XXSP,2013-06-18 04:55:00,
2013-06-18 01:00:00,82.2,73.1,29.50,SE,135,0.0,0.0,74,0.00,,,0.00,WUHU21623XXSP,2013-06-18 05:00:00,
2013-06-18 01:05:00,82.2,73.1,29.50,SE,135,0.0,0.0,74,0.00,,,0.00,WUHU21623XXSP,2013-06-18 05:05:00,
2013-06-18 01:10:00,82.2,73.1,29.50,SSE,157,0.0,0.0,74,0.00,,,0.00,WUHU21623XXSP,2013-06-18 05:10:00,
2013-06-18 01:15:00,82.2,73.1,29.50,SSE,157,0.0,0.0,74,0.00,,,0.00,WUHU21623XXSP,2013-06-18 05:15:00,
2013-06-18 01:20:00,82.2,73.1,29.50,SSE,157,0.0,0.0,74,0.00,,,0.00,WUHU21623XXSP,2013-06-18 05:20:00,
2013-06-18 01:25:00,82.0,72.9,29.50,SSE,157,0.0,0.0,74,0.00,,,0.00,WUHU21623XXSP,2013-06-18 05:25:00,
2013-06-18 01:30:00,82.0,72.9,29.50,SSE,157,0.0,0.0,74,0.00,,,0.00,WUHU21623XXSP,2013-06-18 05:30:00,
2013-06-18 01:35:00,82.0,72.9,29.50,SSE,157,0.0,0.0,74,0.00,,,0.00,WUHU21623XXSP,2013-06-18 05:35:00,
2013-06-18 01:40:00,82.0,72.9,29.50,SSE,157,0.0,0.0,74,0.00,,,0.00,WUHU21623XXSP,2013-06-18 05:40:00,
2013-06-18 01:45:00,81.9,72.7,29.49,SSE,157,0.0,0.0,74,0.00,,,0.00,WUHU21623XXSP,2013-06-18 05:45:00,
2013-06-18 01:50:00,81.7,72.6,29.50,SSE,157,0.0,0.0,74,0.00,,,0.00,WUHU21623XXSP,2013-06-18 05:50:00,
2013-06-18 01:55:00,81.7,72.6,29.49,SSE,157,0.0,0.0,74,0.00,,,0.00,WUHU21623XXSP,2013-06-18 05:55:00,
2013-06-18 02:00:00,81.7,72.6,29.49,SSE,157,0.0,0.0,74,0.00,,,0.00,WUHU21623XXSP,2013-06-18 06:00:00,
2013-06-18 02:05:00,81.5,72.4,29.49,SSE,157,0.0,0.0,74,0.00,,,0.00,WUHU21623XXSP,2013-06-18 06:05:00,
2013-06-18 02:10:00,81.5,72.4,29.49,SSE,157,0.0,0.0,74,0.00,,,0.00,WUHU21623XXSP,2013-06-18 06:10:00,
2013-06-18 02:15:00,81.5,72.4,29.49,SSE,157,0.0,0.0,74,0.00,,,0.00,WUHU21623XXSP,2013-06-18 06:15:00,
2013-06-18 02:20:00,81.3,72.2,29.48,SSE,157,0.0,0.0,74,0.00,,,0.00,WUHU21623XXSP,2013-06-18 06:20:00,
2013-06-18 02:25:00,81.3,72.2,29.48,SSE,157,0.0,0.0,74,0.00,,,0.00,WUHU21623XXSP,2013-06-18 06:25:00,
2013-06-18 02:30:00,81.3,72.2,29.48,SSE,157,0.0,0.0,74,0.00,,,0.00,WUHU21623XXSP,2013-06-18 06:30:00,
2013-06-18 02:35:00,81.3,72.2,29.48,SSE,157,0.0,0.0,74,0.00,,,0.00,WUHU21623XXSP,2013-06-18 06:35:00,
2013-06-18 02:40:00,81.1,72.1,29.48,SSE,157,0.0,0.0,74,0.00,,,0.00,WUHU21623XXSP,2013-06-18 06:40:00,
2013-06-18 02:45:00,81.1,72.1,29.48,SSE,157,0.0,0.0,74,0.00,,,0.00,WUHU21623XXSP,2013-06-18 06:45:00,
2013-06-18 02:50:00,81.1,72.1,29.48,SSE,157,0.0,0.0,74,0.00,,,0.00,WUHU21623XXSP,2013-06-18 06:50:00,
2013-06-18 02:55:00,81.1,72.1,29.48,SSE,157,0.0,0.0,74,0.00,,,0.00,WUHU21623XXSP,2013-06-18 06:55:00,
2013-06-18 03:00:00,81.1,72.1,29.48,SSE,157,0.0,0.0,74,0.00,,,0.00,WUHU21623XXSP,2013-06-18 07:00:00,
2013-06-18 03:05:00,81.0,72.3,29.49,SSE,157,0.0,0.0,75,0.00,,,0.00,WUHU21623XXSP,2013-06-18 07:05:00,
2013-06-18 03:10:00,81.0,72.3,29.49,SSE,157,0.0,0.0,75,0.00,,,0.00,WUHU21623XXSP,2013-06-18 07:10:00,
2013-06-18 03:15:00,80.8,72.1,29.49,SSE,157,0.0,0.0,75,0.00,,,0.00,WUHU21623XXSP,2013-06-18 07:15:00,
2013-06-18 03:20:00,80.8,72.1,29.49,SSE,157,0.0,0.0,75,0.00,,,0.00,WUHU21623XXSP,2013-06-18 07:20:00,
2013-06-18 03:25:00,80.8,72.1,29.48,SSE,157,0.0,0.0,75,0.00,,,0.00,WUHU21623XXSP,2013-06-18 07:25:00,
2013-06-18 03:30:00,80.8,72.1,29.49,SSE,157,0.0,0.0,75,0.00,,,0.00,WUHU21623XXSP,2013-06-18 07:30:00,
2013-06-18 03:35:00,80.6,72.0,29.48,SSE,157,0.0,0.0,75,0.00,,,0.00,WUHU21623XXSP,2013-06-18 07:35:00,
2013-06-18 03:40:00,80.4,71.8,29.48,SSE,157,0.0,0.0,75,0.00,,,0.00,WUHU21623XXSP,2013-06-18 07:40:00,
2013-06-18 03:45:00,80.4,71.8,29.48,SSE,157,0.0,0.0,75,0.00,,,0.00,WUHU21623XXSP,2013-06-18 07:45:00,
2013-06-18 03:50:00,80.4,71.8,29.48,SSE,157,0.0,0.0,75,0.00,,,0.00,WUHU21623XXSP,2013-06-18 07:50:00,
2013-06-18 03:55:00,80.4,72.2,29.48,SSE,157,0.0,0.0,76,0.00,,,0.00,WUHU21623XXSP,2013-06-18 07:55:00,
2013-06-18 04:00:00,80.4,72.2,29.48,SSE,157,0.0,0.0,76,0.00,,,0.00,WUHU21623XXSP,2013-06-18 08:00:00,
2013-06-18 04:05:00,80.4,72.2,29.47,SSE,157,0.0,0.0,76,0.00,,,0.00,WUHU21623XXSP,2013-06-18 08:05:00,
2013-06-18 04:10:00,80.4,72.2,29.47,SSE,157,0.0,0.0,76,0.00,,,0.00,WUHU21623XXSP,2013-06-18 08:10:00,
2013-06-18 04:15:00,80.2,72.0,29.48,SSE,157,0.0,0.0,76,0.00,,,0.00,WUHU21623XXSP,2013-06-18 08:15:00,
2013-06-18 04:20:00,80.2,72.0,29.47,SSE,157,0.0,0.0,76,0.00,,,0.00,WUHU21623XXSP,2013-06-18 08:20:00,
2013-06-18 04:25:00,80.2,72.0,29.47,SSE,157,0.0,0.0,76,0.00,,,0.00,WUHU21623XXSP,2013-06-18 08:25:00,
2013-06-18 04:30:00,80.2,72.0,29.47,SSE,157,0.0,0.0,76,0.00,,,0.00,WUHU21623XXSP,2013-06-18 08:30:00,
2013-06-18 04:35:00,80.2,72.0,29.47,SSE,157,0.0,0.0,76,0.00,,,0.00,WUHU21623XXSP,2013-06-18 08:35:00,
2013-06-18 04:40:00,80.2,72.0,29.47,SSE,157,0.0,0.0,76,0.00,,,0.00,WUHU21623XXSP,2013-06-18 08:40:00,
2013-06-18 04:45:00,80.1,71.8,29.47,SSE,157,0.0,0.0,76,0.00,,,0.00,WUHU21623XXSP,2013-06-18 08:45:00,
2013-06-18 04:50:00,80.2,72.0,29.47,SSE,157,0.0,0.0,76,0.00,,,0.00,WUHU21623XXSP,2013-06-18 08:50:00,
2013-06-18 04:55:00,80.2,72.0,29.46,SSE,157,0.0,0.0,76,0.00,,,0.00,WUHU21623XXSP,2013-06-18 08:55:00,
2013-06-18 05:00:00,80.1,72.2,29.47,SSE,157,0.0,0.0,77,0.00,,,0.00,WUHU21623XXSP,2013-06-18 09:00:00,
2013-06-18 05:05:00,79.9,72.0,29.47,SSE,157,0.0,0.0,77,0.00,,,0.00,WUHU21623XXSP,2013-06-18 09:05:00,
2013-06-18 05:10:00,79.9,72.0,29.47,SSE,157,0.0,0.0,77,0.00,,,0.00,WUHU21623XXSP,2013-06-18 09:10:00,
2013-06-18 05:15:00,79.9,72.0,29.47,SSE,157,0.0,0.0,77,0.00,,,0.00,WUHU21623XXSP,2013-06-18 09:15:00,
2013-06-18 05:20:00,79.9,72.0,29.47,SSE,157,0.0,0.0,77,0.00,,,0.00,WUHU21623XXSP,2013-06-18 09:20:00,
2013-06-18 05:25:00,79.9,72.0,29.47,SSE,157,0.0,0.0,77,0.00,,,0.00,WUHU21623XXSP,2013-06-18 09:25:00,
2013-06-18 05:31:00,79.9,72.0,29.47,SSE,157,0.0,0.0,77,0.00,,,0.00,WUHU21623XXSP,2013-06-18 09:31:00,
2013-06-18 05:36:00,79.9,72.0,29.47,SSE,157,0.0,0.0,77,0.00,,,0.00,WUHU21623XXSP,2013-06-18 09:36:00,
2013-06-18 05:41:00,79.7,71.9,29.47,SSE,157,0.0,0.0,77,0.00,,,0.00,WUHU21623XXSP,2013-06-18 09:41:00,
2013-06-18 05:46:00,79.7,71.9,29.47,SSE,157,0.0,0.0,77,0.00,,,0.00,WUHU21623XXSP,2013-06-18 09:46:00,
2013-06-18 05:51:00,79.7,71.9,29.47,SSE,157,0.0,0.0,77,0.00,,,0.00,WUHU21623XXSP,2013-06-18 09:51:00,
2013-06-18 05:56:00,79.7,72.2,29.47,SSE,157,0.0,0.0,78,0.00,,,0.00,WUHU21623XXSP,2013-06-18 09:56:00,
2013-06-18 06:01:00,79.7,72.2,29.47,SSE,157,0.0,0.0,78,0.00,,,0.00,WUHU21623XXSP,2013-06-18 10:01:00,
2013-06-18 06:06:00,79.7,72.2,29.47,SSE,157,0.0,0.0,78,0.00,,,0.00,WUHU21623XXSP,2013-06-18 10:06:00,
2013-06-18 06:11:00,79.7,72.2,29.48,SSE,157,0.0,0.0,78,0.00,,,0.00,WUHU21623XXSP,2013-06-18 10:11:00,
2013-06-18 06:16:00,79.7,72.2,29.47,SSE,157,0.0,0.0,78,0.00,,,0.00,WUHU21623XXSP,2013-06-18 10:16:00,
2013-06-18 06:21:00,79.5,72.1,29.47,SSE,157,0.0,0.0,78,0.00,,,0.00,WUHU21623XXSP,2013-06-18 10:21:00,
2013-06-18 06:26:00,79.5,72.1,29.47,SSE,157,0.0,0.0,78,0.00,,,0.00,WUHU21623XXSP,2013-06-18 10:26:00,
2013-06-18 06:31:00,79.5,72.1,29.47,SSE,157,0.0,0.0,78,0.00,,,0.00,WUHU21623XXSP,2013-06-18 10:31:00,
2013-06-18 06:36:00,79.5,72.1,29.47,SSE,157,0.0,0.0,78,0.00,,,0.00,WUHU21623XXSP,2013-06-18 10:36:00,
2013-06-18 06:41:00,79.7,72.2,29.46,SSE,157,0.0,0.0,78,0.00,,,0.00,WUHU21623XXSP,2013-06-18 10:41:00,
2013-06-18 06:46:00,79.5,72.1,29.47,SSE,157,0.0,0.0,78,0.00,,,0.00,WUHU21623XXSP,2013-06-18 10:46:00,
2013-06-18 06:51:00,79.9,72.4,29.46,SSE,157,0.0,0.0,78,0.00,,,0.00,WUHU21623XXSP,2013-06-18 10:51:00,
2013-06-18 06:56:00,79.9,72.4,29.47,SSE,157,0.0,0.0,78,0.00,,,0.00,WUHU21623XXSP,2013-06-18 10:56:00,
2013-06-18 07:01:00,79.9,72.4,29.47,SSE,157,0.0,0.0,78,0.00,,,0.00,WUHU21623XXSP,2013-06-18 11:01:00,
2013-06-18 07:06:00,80.4,73.0,29.48,SSE,157,0.0,0.0,78,0.00,,,0.00,WUHU21623XXSP,2013-06-18 11:06:00,
2013-06-18 07:11:00,80.8,73.3,29.47,SSE,157,0.0,0.0,78,0.00,,,0.00,WUHU21623XXSP,2013-06-18 11:11:00,
2013-06-18 07:16:00,80.8,73.3,29.48,SSE,157,0.0,0.0,78,0.00,,,0.00,WUHU21623XXSP,2013-06-18 11:16:00,
2013-06-18 07:21:00,81.3,73.8,29.48,SSE,157,0.0,0.0,78,0.00,,,0.00,WUHU21623XXSP,2013-06-18 11:21:00,
2013-06-18 07:26:00,81.7,74.2,29.48,SSE,157,0.0,0.0,78,0.00,,,0.00,WUHU21623XXSP,2013-06-18 11:26:00,
2013-06-18 07:31:00,82.0,74.6,29.48,SSE,157,0.0,0.0,78,0.00,,,0.00,WUHU21623XXSP,2013-06-18 11:31:00,
2013-06-18 07:36:00,82.2,74.7,29.48,SE,135,0.0,0.0,78,0.00,,,0.00,WUHU21623XXSP,2013-06-18 11:36:00,
2013-06-18 07:41:00,82.2,74.7,29.48,SSE,157,0.0,0.0,78,0.00,,,0.00,WUHU21623XXSP,2013-06-18 11:41:00,
2013-06-18 07:46:00,82.6,74.7,29.48,South,180,0.0,0.0,77,0.00,,,0.00,WUHU21623XXSP,2013-06-18 11:46:00,
2013-06-18 07:51:00,82.9,75.0,29.48,South,180,0.0,0.0,77,0.00,,,0.00,WUHU21623XXSP,2013-06-18 11:51:00,
2013-06-18 07:56:00,83.1,75.2,29.48,SSE,157,0.0,0.0,77,0.00,,,0.00,WUHU21623XXSP,2013-06-18 11:56:00,
2013-06-18 08:01:00,83.3,74.9,29.48,SSE,157,0.0,0.0,76,0.00,,,0.00,WUHU21623XXSP,2013-06-18 12:01:00,
2013-06-18 08:06:00,83.1,74.9,29.49,SSW,202,0.0,0.0,76,0.00,,,0.00,WUHU21623XXSP,2013-06-18 12:06:00,
2013-06-18 08:11:00,83.5,75.1,29.49,SSE,157,0.0,0.0,76,0.00,,,0.00,WUHU21623XXSP,2013-06-18 12:11:00,
2013-06-18 08:16:00,83.5,75.1,29.50,SSE,157,0.0,0.0,76,0.00,,,0.00,WUHU21623XXSP,2013-06-18 12:16:00,
2013-06-18 08:21:00,84.0,75.2,29.50,SSE,157,0.0,0.0,75,0.00,,,0.00,WUHU21623XXSP,2013-06-18 12:21:00,
2013-06-18 08:26:00,84.4,75.6,29.50,South,180,0.0,0.0,75,0.00,,,0.00,WUHU21623XXSP,2013-06-18 12:26:00,
2013-06-18 08:31:00,84.7,75.5,29.50,SSE,157,0.0,0.0,74,0.00,,,0.00,WUHU21623XXSP,2013-06-18 12:31:00,
2013-06-18 08:36:00,85.5,76.2,29.51,South,180,0.0,0.0,74,0.00,,,0.00,WUHU21623XXSP,2013-06-18 12:36:00,
2013-06-18 08:41:00,85.8,76.2,29.51,South,180,0.0,0.0,73,0.00,,,0.00,WUHU21623XXSP,2013-06-18 12:41:00,
2013-06-18 08:46:00,85.8,76.2,29.51,SSE,157,0.0,0.0,73,0.00,,,0.00,WUHU21623XXSP,2013-06-18 12:46:00,
2013-06-18 08:51:00,86.5,76.5,29.51,SSE,157,0.0,0.0,72,0.00,,,0.00,WUHU21623XXSP,2013-06-18 12:51:00,
2013-06-18 08:56:00,87.1,76.2,29.51,South,180,0.0,0.0,71,0.00,,,0.00,WUHU21623XXSP,2013-06-18 12:56:00,
2013-06-18 09:01:00,87.6,76.7,29.51,South,180,0.0,0.0,70,0.00,,,0.00,WUHU21623XXSP,2013-06-18 13:01:00,
2013-06-18 09:06:00,88.3,76.9,29.51,SSE,157,0.0,0.0,69,0.00,,,0.00,WUHU21623XXSP,2013-06-18 13:06:00,
2013-06-18 09:11:00,88.7,76.3,29.51,SE,135,0.0,0.0,67,0.00,,,0.00,WUHU21623XXSP,2013-06-18 13:11:00,
2013-06-18 09:16:00,88.3,75.5,29.51,SSE,157,0.0,0.0,66,0.00,,,0.00,WUHU21623XXSP,2013-06-18 13:16:00,
2013-06-18 09:21:00,88.7,76.2,29.51,SE,135,0.0,0.0,67,0.00,,,0.00,WUHU21623XXSP,2013-06-18 13:21:00,
2013-06-18 09:26:00,89.2,76.4,29.50,SE,135,0.0,0.0,66,0.00,,,0.00,WUHU21623XXSP,2013-06-18 13:26:00,
2013-06-18 09:31:00,89.8,76.9,29.51,SSE,157,0.0,0.0,66,0.00,,,0.00,WUHU21623XXSP,2013-06-18 13:31:00,
2013-06-18 09:36:00,90.7,76.9,29.51,SE,135,0.0,0.0,65,0.00,,,0.00,WUHU21623XXSP,2013-06-18 13:36:00,
2013-06-18 09:41:00,91.2,77.3,29.52,South,180,0.0,0.0,64,0.00,,,0.00,WUHU21623XXSP,2013-06-18 13:41:00,
2013-06-18 09:46:00,91.6,77.1,29.52,ESE,112,0.0,0.0,63,0.00,,,0.00,WUHU21623XXSP,2013-06-18 13:46:00,
2013-06-18 09:51:00,91.8,77.3,29.51,SSE,157,0.0,0.0,63,0.00,,,0.00,WUHU21623XXSP,2013-06-18 13:51:00,
2013-06-18 09:56:00,91.6,76.7,29.51,SW,225,0.0,0.0,62,0.00,,,0.00,WUHU21623XXSP,2013-06-18 13:56:00,
2013-06-18 10:01:00,91.6,76.7,29.52,SE,135,0.0,0.0,61,0.00,,,0.00,WUHU21623XXSP,2013-06-18 14:01:00,
2013-06-18 10:06:00,91.6,76.2,29.51,SE,135,0.0,0.0,61,0.00,,,0.00,WUHU21623XXSP,2013-06-18 14:06:00,
2013-06-18 10:11:00,91.8,76.4,29.52,SSE,157,0.0,0.0,61,0.00,,,0.00,WUHU21623XXSP,2013-06-18 14:11:00,
2013-06-18 10:16:00,92.5,77.1,29.51,ESE,112,0.0,0.0,61,0.00,,,0.00,WUHU21623XXSP,2013-06-18 14:16:00,
2013-06-18 10:21:00,93.4,77.0,29.51,ESE,112,0.0,0.0,59,0.00,,,0.00,WUHU21623XXSP,2013-06-18 14:21:00,
2013-06-18 10:26:00,93.7,76.7,29.51,SSE,157,0.0,0.0,58,0.00,,,0.00,WUHU21623XXSP,2013-06-18 14:26:00,
2013-06-18 10:31:00,94.3,76.7,29.51,SSE,157,0.0,0.0,57,0.00,,,0.00,WUHU21623XXSP,2013-06-18 14:31:00,
2013-06-18 10:36:00,94.8,77.2,29.52,SSW,202,0.0,0.0,57,0.00,,,0.00,WUHU21623XXSP,2013-06-18 14:36:00,
2013-06-18 10:41:00,95.2,77.5,29.52,SE,135,0.0,0.0,56,0.00,,,0.00,WUHU21623XXSP,2013-06-18 14:41:00,
2013-06-18 10:46:00,95.5,76.6,29.52,SSE,157,0.0,0.0,55,0.00,,,0.00,WUHU21623XXSP,2013-06-18 14:46:00,
2013-06-18 10:51:00,95.7,76.4,29.52,SSE,157,0.0,0.0,54,0.00,,,0.00,WUHU21623XXSP,2013-06-18 14:51:00,
2013-06-18 10:56:00,96.1,77.3,29.52,SSE,157,0.0,0.0,55,0.00,,,0.00,WUHU21623XXSP,2013-06-18 14:56:00,
2013-06-18 11:01:00,96.6,76.7,29.52,ESE,112,0.0,0.0,53,0.00,,,0.00,WUHU21623XXSP,2013-06-18 15:01:00,
2013-06-18 11:06:00,96.4,76.0,29.52,SSE,157,0.0,0.0,52,0.00,,,0.00,WUHU21623XXSP,2013-06-18 15:06:00,
2013-06-18 11:11:00,96.3,76.3,29.52,ESE,112,0.0,0.0,53,0.00,,,0.00,WUHU21623XXSP,2013-06-18 15:11:00,
2013-06-18 11:16:00,96.4,76.5,29.52,ESE,112,0.0,0.0,53,0.00,,,0.00,WUHU21623XXSP,2013-06-18 15:16:00,
2013-06-18 11:21:00,96.6,77.2,29.52,SSE,157,0.0,0.0,54,0.00,,,0.00,WUHU21623XXSP,2013-06-18 15:21:00,
2013-06-18 11:26:00,96.8,76.8,29.52,SE,135,0.0,0.0,53,0.00,,,0.00,WUHU21623XXSP,2013-06-18 15:26:00,
2013-06-18 11:31:00,96.4,76.5,29.52,SSE,157,0.0,0.0,53,0.00,,,0.00,WUHU21623XXSP,2013-06-18 15:31:00,
2013-06-18 11:36:00,96.6,76.7,29.52,South,180,0.0,0.0,53,0.00,,,0.00,WUHU21623XXSP,2013-06-18 15:36:00,
2013-06-18 11:41:00,96.4,76.5,29.52,South,180,0.0,0.0,53,0.00,,,0.00,WUHU21623XXSP,2013-06-18 15:41:00,
2013-06-18 11:46:00,96.4,76.5,29.51,South,180,0.0,0.0,53,0.00,,,0.00,WUHU21623XXSP,2013-06-18 15:46:00,
2013-06-18 11:51:00,96.4,77.0,29.51,South,180,0.0,0.0,54,0.00,,,0.00,WUHU21623XXSP,2013-06-18 15:51:00,
2013-06-18 11:56:00,97.0,77.5,29.51,SSE,157,0.0,0.0,54,0.00,,,0.00,WUHU21623XXSP,2013-06-18 15:56:00,
2013-06-18 12:01:00,96.6,76.1,29.51,ESE,112,0.0,0.0,52,0.00,,,0.00,WUHU21623XXSP,2013-06-18 16:01:00,
2013-06-18 12:06:00,96.1,76.2,29.51,ESE,112,0.0,0.0,53,0.00,,,0.00,WUHU21623XXSP,2013-06-18 16:06:00,
2013-06-18 12:11:00,95.9,76.0,29.51,SE,135,0.0,0.0,53,0.00,,,0.00,WUHU21623XXSP,2013-06-18 16:11:00,
2013-06-18 12:16:00,95.9,76.0,29.51,ESE,112,0.0,0.0,53,0.00,,,0.00,WUHU21623XXSP,2013-06-18 16:16:00,
2013-06-18 12:21:00,96.4,77.0,29.51,South,180,0.0,0.0,54,0.00,,,0.00,WUHU21623XXSP,2013-06-18 16:21:00,
2013-06-18 12:26:00,97.0,77.0,29.51,SE,135,0.0,0.0,53,0.00,,,0.00,WUHU21623XXSP,2013-06-18 16:26:00,
2013-06-18 12:31:00,97.5,76.9,29.51,SSE,157,0.0,0.0,52,0.00,,,0.00,WUHU21623XXSP,2013-06-18 16:31:00,
2013-06-18 12:36:00,97.5,76.9,29.51,SSE,157,0.0,0.0,52,0.00,,,0.00,WUHU21623XXSP,2013-06-18 16:36:00,
2013-06-18 12:41:00,97.5,77.5,29.51,South,180,0.0,0.0,53,0.00,,,0.00,WUHU21623XXSP,2013-06-18 16:41:00,
2013-06-18 12:46:00,98.4,77.8,29.51,SSE,157,0.0,0.0,52,0.00,,,0.00,WUHU21623XXSP,2013-06-18 16:46:00,
2013-06-18 12:51:00,98.8,78.1,29.51,South,180,0.0,0.0,52,0.00,,,0.00,WUHU21623XXSP,2013-06-18 16:51:00,
2013-06-18 12:56:00,99.1,77.9,29.51,SSW,202,0.0,0.0,51,0.00,,,0.00,WUHU21623XXSP,2013-06-18 16:56:00,
2013-06-18 13:01:00,99.5,78.2,29.50,South,180,0.0,0.0,51,0.00,,,0.00,WUHU21623XXSP,2013-06-18 17:01:00,
2013-06-18 13:06:00,100.0,78.1,29.50,SE,135,0.0,0.0,50,0.00,,,0.00,WUHU21623XXSP,2013-06-18 17:06:00,
2013-06-18 13:11:00,100.2,78.3,29.50,South,180,0.0,0.0,50,0.00,,,0.00,WUHU21623XXSP,2013-06-18 17:11:00,
2013-06-18 13:16:00,100.2,77.6,29.50,SSE,157,0.0,0.0,49,0.00,,,0.00,WUHU21623XXSP,2013-06-18 17:16:00,
2013-06-18 13:21:00,100.6,77.9,29.49,SE,135,0.0,0.0,49,0.00,,,0.00,WUHU21623XXSP,2013-06-18 17:21:00,
2013-06-18 13:26:00,100.8,77.4,29.49,SE,135,0.0,0.0,48,0.00,,,0.00,WUHU21623XXSP,2013-06-18 17:26:00,
2013-06-18 13:31:00,100.8,77.4,29.49,ESE,112,0.0,0.0,48,0.00,,,0.00,WUHU21623XXSP,2013-06-18 17:31:00,
2013-06-18 13:36:00,100.6,77.3,29.49,SSE,157,0.0,0.0,48,0.00,,,0.00,WUHU21623XXSP,2013-06-18 17:36:00,
2013-06-18 13:41:00,100.2,76.3,29.49,ESE,112,0.0,0.0,47,0.00,,,0.00,WUHU21623XXSP,2013-06-18 17:41:00,
2013-06-18 13:46:00,100.2,76.9,29.50,South,180,0.0,0.0,48,0.00,,,0.00,WUHU21623XXSP,2013-06-18 17:46:00,
2013-06-18 13:51:00,100.9,77.6,29.49,SSW,202,0.0,0.0,48,0.00,,,0.00,WUHU21623XXSP,2013-06-18 17:51:00,
2013-06-18 13:56:00,101.1,77.1,29.49,South,180,0.0,0.0,47,0.00,,,0.00,WUHU21623XXSP,2013-06-18 17:56:00,
2013-06-18 14:01:00,101.1,76.4,29.49,ESE,112,0.0,0.0,46,0.00,,,0.00,WUHU21623XXSP,2013-06-18 18:01:00,
2013-06-18 14:06:00,101.1,76.4,29.49,SSE,157,0.0,0.0,46,0.00,,,0.00,WUHU21623XXSP,2013-06-18 18:06:00,
2013-06-18 14:11:00,101.1,76.4,29.49,SE,135,0.0,0.0,46,0.00,,,0.00,WUHU21623XXSP,2013-06-18 18:11:00,
2013-06-18 14:16:00,101.1,76.4,29.49,SE,135,0.0,0.0,46,0.00,,,0.00,WUHU21623XXSP,2013-06-18 18:16:00,
2013-06-18 14:21:00,101.3,76.6,29.49,South,180,0.0,0.0,46,0.00,,,0.00,WUHU21623XXSP,2013-06-18 18:21:00,
2013-06-18 14:26:00,101.5,77.4,29.49,SE,135,0.0,0.0,47,0.00,,,0.00,WUHU21623XXSP,2013-06-18 18:26:00,
2013-06-18 14:31:00,101.5,76.7,29.48,ESE,112,0.0,0.0,46,0.00,,,0.00,WUHU21623XXSP,2013-06-18 18:31:00,
2013-06-18 14:36:00,101.3,76.6,29.49,ESE,112,0.0,0.0,46,0.00,,,0.00,WUHU21623XXSP,2013-06-18 18:36:00,
2013-06-18 14:41:00,100.9,76.3,29.48,South,180,0.0,0.0,46,0.00,,,0.00,WUHU21623XXSP,2013-06-18 18:41:00,
2013-06-18 14:46:00,100.9,76.3,29.48,SE,135,0.0,0.0,46,0.00,,,0.00,WUHU21623XXSP,2013-06-18 18:46:00,
2013-06-18 14:51:00,100.8,76.3,29.48,ESE,112,0.0,0.0,47,0.00,,,0.00,WUHU21623XXSP,2013-06-18 18:51:00,
2013-06-18 14:56:00,100.9,76.9,29.48,South,180,0.0,0.0,47,0.00,,,0.00,WUHU21623XXSP,2013-06-18 18:56:00,
2013-06-18 15:01:00,101.3,76.6,29.48,ESE,112,0.0,0.0,46,0.00,,,0.00,WUHU21623XXSP,2013-06-18 19:01:00,
2013-06-18 15:06:00,100.8,76.8,29.48,SSE,157,0.0,0.0,47,0.00,,,0.00,WUHU21623XXSP,2013-06-18 19:06:00,
2013-06-18 15:11:00,100.6,76.6,29.48,SSE,157,0.0,0.0,47,0.00,,,0.00,WUHU21623XXSP,2013-06-18 19:11:00,
2013-06-18 15:16:00,100.8,76.8,29.47,SSE,157,0.0,0.0,47,0.00,,,0.00,WUHU21623XXSP,2013-06-18 19:16:00,
2013-06-18 15:21:00,100.9,76.9,29.47,South,180,0.0,0.0,47,0.00,,,0.00,WUHU21623XXSP,2013-06-18 19:21:00,
2013-06-18 15:26:00,101.1,76.4,29.47,SE,135,0.0,0.0,46,0.00,,,0.00,WUHU21623XXSP,2013-06-18 19:26:00,
2013-06-18 15:31:00,100.2,76.9,29.47,ESE,112,0.0,0.0,48,0.00,,,0.00,WUHU21623XXSP,2013-06-18 19:31:00,
2013-06-18 15:36:00,100.2,76.3,29.47,SE,135,0.0,0.0,47,0.00,,,0.00,WUHU21623XXSP,2013-06-18 19:36:00,
2013-06-18 15:41:00,100.2,76.1,29.47,SE,135,0.0,0.0,47,0.00,,,0.00,WUHU21623XXSP,2013-06-18 19:41:00,
2013-06-18 15:46:00,100.0,76.1,29.46,ESE,112,0.0,0.0,47,0.00,,,0.00,WUHU21623XXSP,2013-06-18 19:46:00,
2013-06-18 15:51:00,100.2,75.6,29.46,SE,135,0.0,0.0,46,0.00,,,0.00,WUHU21623XXSP,2013-06-18 19:51:00,
2013-06-18 15:56:00,100.0,76.1,29.46,ESE,112,0.0,0.0,47,0.00,,,0.00,WUHU21623XXSP,2013-06-18 19:56:00,
2013-06-18 16:01:00,99.7,75.8,29.46,SSE,157,0.0,0.0,47,0.00,,,0.00,WUHU21623XXSP,2013-06-18 20:01:00,
2013-06-18 16:06:00,99.9,76.0,29.46,SSE,157,0.0,0.0,47,0.00,,,0.00,WUHU21623XXSP,2013-06-18 20:06:00,
2013-06-18 16:11:00,100.0,76.1,29.46,SE,135,0.0,0.0,47,0.00,,,0.00,WUHU21623XXSP,2013-06-18 20:11:00,
2013-06-18 16:16:00,99.7,76.1,29.46,SSE,157,0.0,0.0,47,0.00,,,0.00,WUHU21623XXSP,2013-06-18 20:16:00,
2013-06-18 16:21:00,99.7,76.5,29.46,SSE,157,0.0,0.0,48,0.00,,,0.00,WUHU21623XXSP,2013-06-18 20:21:00,
2013-06-18 16:26:00,99.3,75.6,29.45,SSE,157,0.0,0.0,48,0.00,,,0.00,WUHU21623XXSP,2013-06-18 20:26:00,
2013-06-18 16:31:00,99.5,76.3,29.45,SE,135,0.0,0.0,48,0.00,,,0.00,WUHU21623XXSP,2013-06-18 20:31:00,
2013-06-18 16:36:00,99.5,75.6,29.45,SSE,157,0.0,0.0,47,0.00,,,0.00,WUHU21623XXSP,2013-06-18 20:36:00,
2013-06-18 16:41:00,99.5,76.3,29.45,SSE,157,0.0,0.0,48,0.00,,,0.00,WUHU21623XXSP,2013-06-18 20:41:00,
2013-06-18 16:46:00,99.7,76.5,29.45,SSE,157,0.0,0.0,48,0.00,,,0.00,WUHU21623XXSP,2013-06-18 20:46:00,
2013-06-18 16:51:00,99.7,75.8,29.45,SSE,157,0.0,0.0,47,0.00,,,0.00,WUHU21623XXSP,2013-06-18 20:51:00,
2013-06-18 16:56:00,99.3,76.1,29.45,SE,135,0.0,0.0,48,0.00,,,0.00,WUHU21623XXSP,2013-06-18 20:56:00,
2013-06-18 17:01:00,99.3,76.1,29.45,SSE,157,0.0,0.0,48,0.00,,,0.00,WUHU21623XXSP,2013-06-18 21:01:00,
2013-06-18 17:06:00,99.1,76.0,29.45,SSE,157,0.0,0.0,48,0.00,,,0.00,WUHU21623XXSP,2013-06-18 21:06:00,
2013-06-18 17:11:00,98.8,76.3,29.45,ESE,112,0.0,0.0,49,0.00,,,0.00,WUHU21623XXSP,2013-06-18 21:11:00,
2013-06-18 17:16:00,98.4,76.2,29.45,SE,135,0.0,0.0,49,0.00,,,0.00,WUHU21623XXSP,2013-06-18 21:16:00,
2013-06-18 17:21:00,98.2,75.8,29.44,ESE,112,0.0,0.0,49,0.00,,,0.00,WUHU21623XXSP,2013-06-18 21:21:00,
2013-06-18 17:26:00,97.9,75.8,29.45,SSE,157,0.0,0.0,49,0.00,,,0.00,WUHU21623XXSP,2013-06-18 21:26:00,
2013-06-18 17:31:00,97.7,75.5,29.44,SSE,157,0.0,0.0,50,0.00,,,0.00,WUHU21623XXSP,2013-06-18 21:31:00,
2013-06-18 17:36:00,97.5,75.8,29.45,South,180,0.0,0.0,50,0.00,,,0.00,WUHU21623XXSP,2013-06-18 21:36:00,
2013-06-18 17:41:00,97.3,76.2,29.44,SE,135,0.0,0.0,51,0.00,,,0.00,WUHU21623XXSP,2013-06-18 21:41:00,
2013-06-18 17:46:00,97.5,76.4,29.45,SE,135,0.0,0.0,51,0.00,,,0.00,WUHU21623XXSP,2013-06-18 21:46:00,
2013-06-18 17:51:00,97.3,76.2,29.45,South,180,0.0,0.0,51,0.00,,,0.00,WUHU21623XXSP,2013-06-18 21:51:00,
2013-06-18 17:56:00,97.2,76.1,29.45,South,180,0.0,0.0,51,0.00,,,0.00,WUHU21623XXSP,2013-06-18 21:56:00,
2013-06-18 18:01:00,96.6,75.6,29.44,SSE,157,0.0,0.0,51,0.00,,,0.00,WUHU21623XXSP,2013-06-18 22:01:00,
2013-06-18 18:07:00,96.4,76.0,29.44,SE,135,0.0,0.0,52,0.00,,,0.00,WUHU21623XXSP,2013-06-18 22:07:00,
2013-06-18 18:12:00,95.9,75.5,29.44,SSE,157,0.0,0.0,52,0.00,,,0.00,WUHU21623XXSP,2013-06-18 22:12:00,
2013-06-18 18:17:00,95.7,75.3,29.44,SSE,157,0.0,0.0,52,0.00,,,0.00,WUHU21623XXSP,2013-06-18 22:17:00,
2013-06-18 18:22:00,95.4,75.1,29.44,SSE,157,0.0,0.0,52,0.00,,,0.00,WUHU21623XXSP,2013-06-18 22:22:00,
2013-06-18 18:27:00,95.0,75.2,29.44,SSW,202,0.0,0.0,53,0.00,,,0.00,WUHU21623XXSP,2013-06-18 22:27:00,
2013-06-18 18:32:00,94.6,74.8,29.44,SSE,157,0.0,0.0,53,0.00,,,0.00,WUHU21623XXSP,2013-06-18 22:32:00,
2013-06-18 18:37:00,94.1,74.9,29.44,SSW,202,0.0,0.0,54,0.00,,,0.00,WUHU21623XXSP,2013-06-18 22:37:00,
2013-06-18 18:42:00,93.4,74.2,29.44,South,180,0.0,0.0,54,0.00,,,0.00,WUHU21623XXSP,2013-06-18 22:42:00,
2013-06-18 18:47:00,93.0,73.8,29.44,South,180,0.0,0.0,54,0.00,,,0.00,WUHU21623XXSP,2013-06-18 22:47:00,
2013-06-18 18:52:00,92.5,73.9,29.44,SSE,157,0.0,0.0,55,0.00,,,0.00,WUHU21623XXSP,2013-06-18 22:52:00,
2013-06-18 18:57:00,92.1,74.1,29.44,SSE,157,0.0,0.0,56,0.00,,,0.00,WUHU21623XXSP,2013-06-18 22:57:00,
2013-06-18 19:02:00,91.8,74.3,29.44,SSE,157,0.0,0.0,57,0.00,,,0.00,WUHU21623XXSP,2013-06-18 23:02:00,
2013-06-18 19:07:00,91.6,74.1,29.44,SSE,157,0.0,0.0,57,0.00,,,0.00,WUHU21623XXSP,2013-06-18 23:07:00,
2013-06-18 19:12:00,91.2,74.3,29.44,South,180,0.0,0.0,58,0.00,,,0.00,WUHU21623XXSP,2013-06-18 23:12:00,
2013-06-18 19:17:00,90.9,74.0,29.45,SSE,157,0.0,0.0,58,0.00,,,0.00,WUHU21623XXSP,2013-06-18 23:17:00,
2013-06-18 19:22:00,90.3,74.0,29.45,SSW,202,0.0,0.0,59,0.00,,,0.00,WUHU21623XXSP,2013-06-18 23:22:00,
2013-06-18 19:27:00,89.8,74.1,29.45,SSE,157,0.0,0.0,60,0.00,,,0.00,WUHU21623XXSP,2013-06-18 23:27:00,
2013-06-18 19:32:00,89.2,74.1,29.45,South,180,0.0,0.0,61,0.00,,,0.00,WUHU21623XXSP,2013-06-18 23:32:00,
2013-06-18 19:37:00,88.9,73.7,29.45,SSE,157,0.0,0.0,61,0.00,,,0.00,WUHU21623XXSP,2013-06-18 23:37:00,
2013-06-18 19:42:00,88.2,73.1,29.45,South,180,0.0,0.0,61,0.00,,,0.00,WUHU21623XXSP,2013-06-18 23:42:00,
2013-06-18 19:47:00,87.8,73.2,29.45,SE,135,0.0,0.0,62,0.00,,,0.00,WUHU21623XXSP,2013-06-18 23:47:00,
2013-06-18 19:52:00,87.6,73.0,29.46,SE,135,0.0,0.0,62,0.00,,,0.00,WUHU21623XXSP,2013-06-18 23:52:00,
2013-06-18 19:57:00,87.1,72.5,29.45,SSE,157,0.0,0.0,62,0.00,,,0.00,WUHU21623XXSP,2013-06-18 23:57:00,
2013-06-18 20:02:00,87.1,73.0,29.45,SSE,157,0.0,0.0,63,0.00,,,0.00,WUHU21623XXSP,2013-06-19 00:02:00,
2013-06-18 20:07:00,86.9,72.8,29.45,SSE,157,0.0,0.0,63,0.00,,,0.00,WUHU21623XXSP,2013-06-19 00:07:00,
2013-06-18 20:12:00,86.5,72.4,29.45,SSE,157,0.0,0.0,63,0.00,,,0.00,WUHU21623XXSP,2013-06-19 00:12:00,
2013-06-18 20:17:00,86.5,72.9,29.45,SE,135,0.0,0.0,64,0.00,,,0.00,WUHU21623XXSP,2013-06-19 00:17:00,
2013-06-18 20:22:00,86.4,72.7,29.45,SE,135,0.0,0.0,64,0.00,,,0.00,WUHU21623XXSP,2013-06-19 00:22:00,
2013-06-18 20:27:00,86.0,72.4,29.45,SSE,157,0.0,0.0,64,0.00,,,0.00,WUHU21623XXSP,2013-06-19 00:27:00,
2013-06-18 20:32:00,85.8,72.2,29.45,SSE,157,0.0,0.0,64,0.00,,,0.00,WUHU21623XXSP,2013-06-19 00:32:00,
2013-06-18 20:37:00,85.8,72.7,29.45,South,180,0.0,0.0,65,0.00,,,0.00,WUHU21623XXSP,2013-06-19 00:37:00,
2013-06-18 20:42:00,85.5,72.3,29.46,South,180,0.0,0.0,65,0.00,,,0.00,WUHU21623XXSP,2013-06-19 00:42:00,
2013-06-18 20:47:00,85.3,72.6,29.46,SSE,157,0.0,0.0,66,0.00,,,0.00,WUHU21623XXSP,2013-06-19 00:47:00,
2013-06-18 20:52:00,85.3,72.6,29.46,SSE,157,0.0,0.0,66,0.00,,,0.00,WUHU21623XXSP,2013-06-19 00:52:00,
2013-06-18 20:57:00,85.1,72.5,29.46,SSE,157,0.0,0.0,66,0.00,,,0.00,WUHU21623XXSP,2013-06-19 00:57:00,
2013-06-18 21:02:00,84.9,72.7,29.47,SSE,157,0.0,0.0,67,0.00,,,0.00,WUHU21623XXSP,2013-06-19 01:02:00,
2013-06-18 21:07:00,84.9,72.7,29.47,South,180,0.0,0.0,67,0.00,,,0.00,WUHU21623XXSP,2013-06-19 01:07:00,
2013-06-18 21:12:00,84.7,72.6,29.47,SSE,157,0.0,0.0,67,0.00,,,0.00,WUHU21623XXSP,2013-06-19 01:12:00,
2013-06-18 21:17:00,84.7,72.6,29.47,SSE,157,0.0,0.0,67,0.00,,,0.00,WUHU21623XXSP,2013-06-19 01:17:00,
2013-06-18 21:22:00,84.7,72.6,29.47,SSE,157,0.0,0.0,67,0.00,,,0.00,WUHU21623XXSP,2013-06-19 01:22:00,
2013-06-18 21:27:00,84.6,72.8,29.47,SSE,157,0.0,0.0,68,0.00,,,0.00,WUHU21623XXSP,2013-06-19 01:27:00,
2013-06-18 21:32:00,84.6,72.8,29.47,South,180,0.0,0.0,68,0.00,,,0.00,WUHU21623XXSP,2013-06-19 01:32:00,
2013-06-18 21:37:00,84.6,72.8,29.47,South,180,0.0,0.0,68,0.00,,,0.00,WUHU21623XXSP,2013-06-19 01:37:00,
2013-06-18 21:42:00,84.4,72.7,29.47,SSW,202,0.0,0.0,68,0.00,,,0.00,WUHU21623XXSP,2013-06-19 01:42:00,
2013-06-18 21:47:00,84.2,72.5,29.47,South,180,0.0,0.0,68,0.00,,,0.00,WUHU21623XXSP,2013-06-19 01:47:00,
2013-06-18 21:52:00,84.2,73.0,29.48,SSE,157,0.0,0.0,69,0.00,,,0.00,WUHU21623XXSP,2013-06-19 01:52:00,
2013-06-18 21:57:00,84.0,72.8,29.48,SSE,157,0.0,0.0,69,0.00,,,0.00,WUHU21623XXSP,2013-06-19 01:57:00,
2013-06-18 22:02:00,84.0,72.8,29.48,SSE,157,0.0,0.0,69,0.00,,,0.00,WUHU21623XXSP,2013-06-19 02:02:00,
2013-06-18 22:07:00,84.0,72.8,29.48,SSE,157,0.0,0.0,69,0.00,,,0.00,WUHU21623XXSP,2013-06-19 02:07:00,
2013-06-18 22:12:00,84.0,73.2,29.47,SSE,157,0.0,0.0,70,0.00,,,0.00,WUHU21623XXSP,2013-06-19 02:12:00,
2013-06-18 22:17:00,83.8,73.0,29.48,SSE,157,0.0,0.0,70,0.00,,,0.00,WUHU21623XXSP,2013-06-19 02:17:00,
2013-06-18 22:22:00,83.8,73.0,29.47,SSE,157,0.0,0.0,70,0.00,,,0.00,WUHU21623XXSP,2013-06-19 02:22:00,
2013-06-18 22:27:00,83.7,72.9,29.47,SE,135,0.0,0.0,70,0.00,,,0.00,WUHU21623XXSP,2013-06-19 02:27:00,
2013-06-18 22:32:00,83.5,72.7,29.47,South,180,0.0,0.0,70,0.00,,,0.00,WUHU21623XXSP,2013-06-19 02:32:00,
2013-06-18 22:37:00,83.5,73.1,29.47,SSW,202,0.0,0.0,71,0.00,,,0.00,WUHU21623XXSP,2013-06-19 02:37:00,
2013-06-18 22:42:00,83.5,73.1,29.47,SSE,157,0.0,0.0,71,0.00,,,0.00,WUHU21623XXSP,2013-06-19 02:42:00,
2013-06-18 22:47:00,83.5,73.1,29.47,South,180,0.0,0.0,71,0.00,,,0.00,WUHU21623XXSP,2013-06-19 02:47:00,
2013-06-18 22:52:00,83.5,73.1,29.48,SE,135,0.0,0.0,71,0.00,,,0.00,WUHU21623XXSP,2013-06-19 02:52:00,
2013-06-18 22:57:00,83.3,72.9,29.48,SSE,157,0.0,0.0,71,0.00,,,0.00,WUHU21623XXSP,2013-06-19 02:57:00,
2013-06-18 23:02:00,83.3,72.9,29.48,South,180,0.0,0.0,71,0.00,,,0.00,WUHU21623XXSP,2013-06-19 03:02:00,
2013-06-18 23:07:00,83.3,72.9,29.49,South,180,0.0,0.0,71,0.00,,,0.00,WUHU21623XXSP,2013-06-19 03:07:00,
2013-06-18 23:12:00,83.3,72.9,29.49,South,180,0.0,0.0,71,0.00,,,0.00,WUHU21623XXSP,2013-06-19 03:12:00,
2013-06-18 23:17:00,83.1,72.7,29.49,SSE,157,0.0,0.0,71,0.00,,,0.00,WUHU21623XXSP,2013-06-19 03:17:00,
2013-06-18 23:22:00,83.1,73.1,29.49,SSE,157,0.0,0.0,72,0.00,,,0.00,WUHU21623XXSP,2013-06-19 03:22:00,
2013-06-18 23:27:00,83.1,73.1,29.49,SSE,157,0.0,0.0,72,0.00,,,0.00,WUHU21623XXSP,2013-06-19 03:27:00,
2013-06-18 23:32:00,83.1,73.1,29.50,South,180,0.0,0.0,72,0.00,,,0.00,WUHU21623XXSP,2013-06-19 03:32:00,
2013-06-18 23:37:00,83.1,73.1,29.50,SSE,157,0.0,0.0,72,0.00,,,0.00,WUHU21623XXSP,2013-06-19 03:37:00,
2013-06-18 23:42:00,83.1,73.1,29.50,SSE,157,0.0,0.0,72,0.00,,,0.00,WUHU21623XXSP,2013-06-19 03:42:00,
2013-06-18 23:47:00,83.1,73.1,29.49,SSE,157,0.0,0.0,72,0.00,,,0.00,WUHU21623XXSP,2013-06-19 03:47:00,
2013-06-18 23:52:00,83.1,73.1,29.49,SSE,157,0.0,0.0,72,0.00,,,0.00,WUHU21623XXSP,2013-06-19 03:52:00,
2013-06-18 23:57:00,82.9,73.0,29.50,South,180,0.0,0.0,72,0.00,,,0.00,WUHU21623XXSP,2013-06-19 03:57:00,